Date String (YYYY-MM-DD hh:mm:ss) UTC,Instrument flags,Ambient pressure (hPa),Sample flow (lpm),Bypass flow (lpm),Sample temperature (°C),Ambient temperature (°C),ASC tube jacket temperature (°C),LED temperature (°C),Box temperature (°C),Sample RH (%),Span deviation,Mass concentration (μg/m³),Mass concentration (μg/m³),Mass concentration (μg/m³)
DateTimeUTC,F1_M11,P_M11,Q1_M11,Q2_M11,T1_M11,T2_M11,T3_M11,T4_M11,T5_M11,U1_M11,ZSPAN_M11,X0_M11,X2_M11,X1_M11
2022-06-19 01:00:00,,0823.0,5.00,0.00,29.2,28.3,00.0,37.9,31.2,27.1,0000.0,0008.95,0004.60,0003.60
2022-06-19 01:01:00,,0823.0,5.00,0.00,29.2,28.4,00.0,37.9,31.3,27.0,0000.0,0009.58,0004.61,0003.58
2022-06-19 01:02:00,,0823.0,5.00,0.00,29.3,28.1,00.0,37.9,31.2,27.1,0000.0,0009.62,0004.61,0003.58
2022-06-19 01:03:00,,0823.0,5.00,0.00,29.2,27.3,00.0,37.9,31.0,27.2,0000.0,0009.77,0004.60,0003.57
2022-06-19 01:04:00,,0823.0,5.01,0.00,29.1,26.9,00.0,37.8,30.9,27.3,0000.0,0010.10,0004.63,0003.57
2022-06-19 01:05:00,,0823.0,4.99,0.00,29.1,26.9,00.0,37.8,30.9,27.4,0000.0,0009.95,0004.57,0003.57
2022-06-19 01:06:00,,0823.0,5.01,0.00,29.0,27.1,00.0,37.8,30.9,27.5,0000.0,0009.87,0004.52,0003.57
2022-06-19 01:07:00,,0823.0,5.00,0.00,29.0,27.2,00.0,37.8,30.9,27.6,0000.0,0009.80,0004.52,0003.59
2022-06-19 01:08:00,,0823.0,5.01,0.00,29.0,27.4,00.0,37.8,31.0,27.6,0000.0,0009.74,0004.51,0003.58
2022-06-19 01:09:00,,0823.0,5.00,0.00,29.1,27.6,00.0,37.8,31.0,27.7,0000.0,0009.85,0004.55,0003.58
2022-06-19 01:10:00,,0823.0,5.00,0.00,29.1,27.8,00.0,37.9,31.1,27.8,0000.0,0009.92,0004.56,0003.58
2022-06-19 01:11:00,,0823.0,4.99,0.00,29.1,28.0,00.0,37.9,31.1,27.7,0000.0,0009.75,0004.58,0003.57
2022-06-19 01:12:00,,0823.1,4.99,0.00,29.2,28.1,00.0,37.9,31.2,27.7,0000.0,0009.13,0004.58,0003.57
2022-06-19 01:13:00,,0822.9,5.00,0.00,29.2,28.3,00.0,37.9,31.3,27.7,0000.0,0009.15,0004.59,0003.58
2022-06-19 01:14:00,,0823.0,5.00,0.00,29.2,28.4,00.0,37.9,31.3,27.5,0000.0,0008.97,0004.59,0003.59
2022-06-19 01:15:00,,0823.0,5.00,0.00,29.3,28.3,00.0,37.9,31.3,27.5,0000.0,0008.64,0004.56,0003.59
2022-06-19 01:16:00,,0822.9,5.00,0.00,29.2,27.6,00.0,37.9,31.1,27.5,0000.0,0008.79,0004.59,0003.60
2022-06-19 01:17:00,,0822.9,5.00,0.00,29.2,27.1,00.0,37.9,31.0,27.6,0000.0,0008.78,0004.58,0003.59
2022-06-19 01:18:00,,0823.0,5.00,0.00,29.1,27.0,00.0,37.8,30.9,27.6,0000.0,0008.74,0004.57,0003.58
2022-06-19 01:19:00,,0823.0,4.98,0.00,29.1,27.1,00.0,37.8,30.9,27.7,0000.0,0008.66,0004.55,0003.58
2022-06-19 01:20:00,,0823.0,4.99,0.00,29.1,27.2,00.0,37.8,30.9,27.7,0000.0,0008.59,0004.53,0003.58
2022-06-19 01:21:00,,0823.0,5.01,0.00,29.1,27.4,00.0,37.8,31.0,27.7,0000.0,0008.60,0004.54,0003.59
2022-06-19 01:22:00,,0823.0,5.01,0.00,29.1,27.6,00.0,37.9,31.0,27.6,0000.0,0008.91,0004.54,0003.59
2022-06-19 01:23:00,,0823.0,5.00,0.00,29.1,27.8,00.0,37.9,31.1,27.6,0000.0,0008.98,0004.56,0003.59
2022-06-19 01:24:00,,0823.0,5.00,0.00,29.1,27.9,00.0,37.9,31.1,27.4,0000.0,0008.92,0004.53,0003.57
2022-06-19 01:25:00,,0823.0,5.01,0.00,29.2,28.1,00.0,37.9,31.2,27.4,0000.0,0008.97,0004.51,0003.56
2022-06-19 01:26:00,,0823.0,5.00,0.00,29.2,28.2,00.0,37.9,31.2,27.3,0000.0,0009.30,0004.48,0003.55
2022-06-19 01:27:00,,0823.0,5.00,0.00,29.3,28.4,00.0,38.0,31.3,27.1,0000.0,0009.17,0004.45,0003.54
2022-06-19 01:28:00,,0822.9,5.00,0.00,29.3,28.1,00.0,37.9,31.2,27.0,0000.0,0009.25,0004.46,0003.55
2022-06-19 01:29:00,,0822.9,5.00,0.00,29.2,27.4,00.0,37.9,31.0,26.9,0000.0,0009.22,0004.45,0003.54
2022-06-19 01:30:00,,0822.8,4.99,0.00,29.2,26.9,00.0,37.9,30.9,27.0,0000.0,0009.22,0004.45,0003.54
2022-06-19 01:31:00,,0822.8,5.00,0.00,29.1,26.9,00.0,37.8,30.8,27.1,0000.0,0009.28,0004.47,0003.53
2022-06-19 01:32:00,,0822.8,5.00,0.00,29.1,27.0,00.0,37.8,30.9,27.1,0000.0,0009.18,0004.43,0003.52
2022-06-19 01:33:00,,0822.8,4.99,0.00,29.0,27.2,00.0,37.8,30.9,27.0,0000.0,0008.88,0004.40,0003.52
2022-06-19 01:34:00,,0822.8,5.00,0.00,29.0,27.4,00.0,37.8,30.9,26.9,0000.0,0008.63,0004.33,0003.51
2022-06-19 01:35:00,,0822.8,4.99,0.00,29.1,27.6,00.0,37.8,31.0,26.9,0000.0,0008.44,0004.29,0003.51
2022-06-19 01:36:00,,0822.8,5.00,0.00,29.1,27.8,00.0,37.9,31.1,26.7,0000.0,0008.28,0004.25,0003.49
2022-06-19 01:37:00,,0822.8,5.00,0.00,29.1,27.9,00.0,37.9,31.1,26.5,0000.0,0007.87,0004.23,0003.48
2022-06-19 01:38:00,,0822.8,5.00,0.00,29.2,28.1,00.0,37.9,31.2,26.4,0000.0,0007.69,0004.19,0003.45
2022-06-19 01:39:00,,0822.8,5.00,0.00,29.2,28.2,00.0,37.9,31.2,26.4,0000.0,0007.55,0004.15,0003.43
2022-06-19 01:40:00,,0822.8,5.00,0.00,29.2,28.3,00.0,37.9,31.3,26.3,0000.0,0007.46,0004.10,0003.41
2022-06-19 01:41:00,,0822.8,5.01,0.00,29.3,28.4,00.0,38.0,31.3,26.3,0000.0,0007.44,0004.07,0003.39
2022-06-19 01:42:00,,0822.8,5.00,0.00,29.3,28.1,00.0,37.9,31.2,26.2,0000.0,0007.38,0004.02,0003.37
2022-06-19 01:43:00,,0822.9,5.00,0.00,29.2,27.3,00.0,37.9,31.0,26.3,0000.0,0007.51,0004.07,0003.37
2022-06-19 01:44:00,,0822.9,5.01,0.00,29.1,26.9,00.0,37.9,30.9,26.5,0000.0,0007.49,0004.05,0003.34
2022-06-19 01:45:00,,0822.9,4.99,0.00,29.1,26.9,00.0,37.8,30.9,26.6,0000.0,0007.74,0004.08,0003.33
2022-06-19 01:46:00,,0823.0,5.00,0.00,29.1,27.0,00.0,37.8,30.9,26.7,0000.0,0008.51,0004.10,0003.32
2022-06-19 01:47:00,,0823.0,5.00,0.00,29.0,27.2,00.0,37.8,30.9,26.7,0000.0,0008.62,0004.10,0003.31
2022-06-19 01:48:00,,0822.9,4.99,0.00,29.1,27.4,00.0,37.8,31.0,26.7,0000.0,0008.73,0004.12,0003.31
2022-06-19 01:49:00,,0823.0,4.99,0.00,29.1,27.6,00.0,37.8,31.0,26.7,0000.0,0008.83,0004.16,0003.31
2022-06-19 01:50:00,,0823.0,5.00,0.00,29.1,27.8,00.0,37.9,31.1,26.8,0000.0,0008.92,0004.19,0003.31
2022-06-19 01:51:00,,0823.0,4.99,0.00,29.1,27.9,00.0,37.9,31.1,26.7,0000.0,0008.89,0004.18,0003.31
2022-06-19 01:52:00,,0823.0,5.00,0.00,29.1,28.1,00.0,37.9,31.2,26.7,0000.0,0008.86,0004.19,0003.31
2022-06-19 01:53:00,,0823.0,5.01,0.00,29.2,28.2,00.0,37.9,31.2,26.7,0000.0,0008.83,0004.19,0003.32
2022-06-19 01:54:00,,0823.0,5.00,0.00,29.2,28.3,00.0,37.9,31.3,26.7,0000.0,0008.78,0004.15,0003.32
2022-06-19 01:55:00,,0823.0,5.00,0.00,29.3,28.4,00.0,38.0,31.3,26.7,0000.0,0008.90,0004.18,0003.33
2022-06-19 01:56:00,,0823.0,5.00,0.00,29.3,27.9,00.0,37.9,31.2,26.7,0000.0,0008.90,0004.14,0003.33
2022-06-19 01:57:00,,0823.0,4.99,0.00,29.2,27.2,00.0,37.9,31.0,26.8,0000.0,0008.21,0004.17,0003.33
2022-06-19 01:58:00,,0823.0,5.00,0.00,29.1,26.9,00.0,37.8,30.9,27.0,0000.0,0008.36,0004.20,0003.35
2022-06-19 01:59:00,,0823.0,5.01,0.00,29.1,26.9,00.0,37.8,30.8,27.1,0000.0,0008.59,0004.24,0003.38
